EW8784 Weather Reports


time (UTC)temp
C
wind
direction
speed
KPH
gust
KPH
rain 1hr
cm
rain 24hr
cm
rain mn
cm
humidity
%
barometer
mb
20260903023003 28 359 3.2 12.9 0.00 0.00 0.00 100 1012.3
20260903021505 28 4 3.2 14.5 0.00 0.00 0.00 100 1012.5
20260903020006 28 359 6.4 12.9 0.00 0.00 0.00 100 1012.4
20260903011502 28 359 1.6 8.0 0.00 0.00 0.00 100 1012.6
20260903010004 28 359 3.2 9.7 0.00 0.00 0.00 100 1012.7
20260903004503 28 359 1.6 9.7 0.00 0.00 0.00 100 1012.8
20260903000004 27 359 4.8 11.3 0.00 0.00 0.00 100 1013.1
20260902234505 27 349 1.6 11.3 0.00 0.00 0.00 100 1013.2
20260902233003 27 342 4.8 12.9 0.00 0.00 0.00 100 1013.1
20260902230002 27 359 1.6 8.0 0.00 0.00 0.00 100 1013.1
20260902224504 27 345 3.2 9.7 0.00 0.00 0.00 100 1013.2
20260902223006 26 359 3.2 11.3 0.00 0.00 0.00 100 1013.3
20260902221504 26 353 4.8 12.9 0.00 0.00 0.00 100 1013.1
20260902220017 26 339 3.2 9.7 0.00 0.00 0.00 100 1013.0
20260902214503 26 359 1.6 8.0 0.00 0.00 0.00 100 1012.8
20260902211503 26 359 0.0 0.0 0.00 0.00 0.00 100 1013.3
20260902210004 26 14 1.6 3.2 0.00 0.00 0.00 100 1013.2
20260902204506 26 359 1.6 4.8 0.00 0.00 0.00 100 1013.0
20260902203002 26 357 1.6 4.8 0.00 0.00 0.00 100 1013.0
20260902201505 26 336 0.0 0.0 0.00 0.00 0.00 100 1013.3
20260902200006 26 336 0.0 0.0 0.00 0.00 0.00 100 1013.4
20260902194504 26 0 1.6 3.2 0.00 0.00 0.00 100 1013.3
20260902193007 26 359 0.0 0.0 0.00 0.00 0.00 100 1013.4
20260902190003 26 354 1.6 3.2 0.00 0.00 0.00 100 1013.6
20260902184506 26 1 3.2 4.8 0.00 0.00 0.00 100 1013.6
20260902183003 26 336 1.6 1.6 0.00 0.00 0.00 100 1013.5
20260902181505 26 336 0.0 0.0 0.00 0.00 0.00 100 1013.8
20260902180020 26 359 0.0 1.6 0.00 0.00 0.00 100 1013.9
20260902174519 27 350 0.0 0.0 0.00 0.00 0.00 100 1014.0
20260902173005 27 333 0.0 0.0 0.00 0.00 0.00 100 1014.1
20260902171506 27 333 0.0 0.0 0.00 0.00 0.00 100 1014.3
20260902170003 26 333 0.0 0.0 0.00 0.00 0.00 100 1014.4
20260902164504 26 346 0.0 0.0 0.00 0.00 0.00 100 1014.3
20260902163007 26 322 0.0 0.0 0.00 0.00 0.00 100 1014.2
20260902160009 26 3 0.0 1.6 0.00 0.00 0.00 100 1014.6
20260902154508 27 135 1.6 4.8 0.00 0.00 0.00 100 1014.9
20260902153008 27 72 1.6 4.8 0.00 0.00 0.00 100 1014.8
20260902150007 27 8 0.0 0.0 0.00 0.00 0.00 100 1014.9
20260902144509 26 35 0.0 0.0 0.00 0.00 0.00 100 1015.1
20260902143009 27 340 0.0 0.0 0.00 0.00 0.00 100 1015.1
20260902141504 27 336 1.6 3.2 0.00 0.00 0.00 100 1015.1
20260902140007 27 165 0.0 1.6 0.00 0.00 0.00 100 1015.3
20260902134502 27 21 1.6 4.8 0.00 0.00 0.00 100 1015.4
20260902133008 27 350 1.6 4.8 0.00 0.00 0.00 100 1015.3
20260902131504 27 55 0.0 1.6 0.00 0.00 0.00 100 1015.3
20260902130003 27 56 1.6 1.6 0.00 0.00 0.00 100 1015.5
20260902123008 27 115 0.0 0.0 0.00 0.00 0.00 100 1015.6
20260902121502 27 343 0.0 0.0 0.00 0.00 0.00 100 1015.6
20260902120005 27 359 1.6 8.0 0.00 0.00 0.00 100 1015.6
20260902114502 27 359 0.0 0.0 0.00 0.00 0.00 100 1015.7
20260902113003 27 142 0.0 0.0 0.00 0.00 0.00 100 1015.7
20260902111503 27 340 0.0 0.0 0.00 0.00 0.00 100 1015.6
20260902104505 27 339 3.2 8.0 0.00 0.00 0.00 100 1015.7
20260902103007 27 10 0.0 0.0 0.00 0.00 0.00 100 1015.6
20260902101508 27 343 0.0 3.2 0.00 0.00 0.00 100 1015.4
20260902100008 27 359 1.6 9.7 0.00 0.00 0.00 100 1015.1
20260902094504 27 336 3.2 8.0 0.00 0.00 0.00 100 1015.0
20260902093005 27 3 3.2 6.4 0.00 0.00 0.00 100 1014.9
20260902091506 28 359 3.2 12.9 0.00 0.00 0.00 100 1014.8
20260902090004 28 359 1.6 6.4 0.00 0.00 0.00 100 1014.9
20260902084533 28 359 0.0 1.6 0.00 0.00 0.00 100 1014.9
20260902083004 28 18 3.2 11.3 0.00 0.00 0.00 100 1015.0
20260902081506 28 359 1.6 4.8 0.00 0.00 0.00 100 1015.1
20260902080005 29 359 3.2 11.3 0.00 0.03 0.00 100 1015.0
20260902074508 29 340 1.6 4.8 0.00 0.03 0.00 100 1015.1
20260902071506 30 104 3.2 6.4 0.00 0.03 0.00 100 1014.9
20260902070006 30 359 3.2 9.7 0.00 0.03 0.00 100 1014.9
20260902064508 31 359 0.0 1.6 0.00 0.03 0.00 100 1014.6
20260902063004 31 359 0.0 0.0 0.00 0.03 0.00 96 1014.5
20260902061507 32 356 0.0 4.8 0.00 0.03 0.00 85 1014.6
20260902060003 32 359 3.2 8.0 0.00 0.03 0.00 78 1014.6
20260902051506 32 359 1.6 8.0 0.00 0.03 0.00 80 1014.8
20260902043005 32 336 0.0 0.0 0.00 0.03 0.00 80 1015.5
20260902041506 32 359 1.6 4.8 0.00 0.03 0.00 77 1015.5
20260902040008 32 342 1.6 8.0 0.00 0.03 0.00 82 1015.6
20260902034505 32 340 0.0 0.0 0.00 0.03 0.00 85 1015.8
20260902024505 31 359 0.0 0.0 0.00 0.05 0.00 90 1016.2